Weather in Glendale

United States     33°32′16″N   112°17′22″W
temp.,
°C
wind,
m/s
gust,
m/s
humid.,
%
clouds,
%
prec.,
mm/h
press.,
hPa
HPBL,
m
25 may, wed
wed2523:00+28sw6111746 0.0 1006314
02:00+26wsw472032 0.0 1006218
05:00+25wsw12185 0.0 100878
08:00+28ese33110 0.0 1010439
11:00+32ese21100 0.0 1009956
14:00+36wnw1270 0.0 10071399
17:00+39wsw4560 0.0 10042857
20:00+35wsw61090 0.0 1005623
26 may, thu
thu2623:00+30wsw612140 0.0 1008437
02:00+28wsw24170 0.0 1008173
05:00+27ssw23195 0.0 1009128
08:00+29sw11165 0.0 1012405
11:00+33ese011144 0.0 1011976
14:00+37wsw1382 0.0 10081891
17:00+39wsw5585 0.0 10063174
20:00+36wsw79120 0.0 1007881
27 may, fri
fri2723:00+31wsw59170 0.0 1009382
02:00+28sw12170 0.0 1010220
05:00+27sw22170 0.0 1010107
08:00+30nnw011559 0.0 1012478
11:00+34ene1212100 0.0 10111374
14:00+37wnw2490 0.0 10082400
17:00+39wsw56773 0.0 10053213
20:00+34sw7106100 0.0 1005736
28 may, sat
sat2823:00+30sw5910100 0.0 1006394
02:00+28sw4611100 0.0 1007319
05:00+26sw34145 0.0 1007172
08:00+29wsw111346 0.0 1008584
11:00+32wsw121148 0.0 10071538
14:00+36sw3684 0.0 10032532
17:00+37wsw8980 0.0 10002795
20:00+33sw710125 0.0 10001345
29 may, sun
sun2923:00+29sw814184 0.0 1001699
02:00+26sw611240 0.0 1000555
05:00+23sw48310 0.0 1002658
08:00+25sw56325 0.0 10031006
11:00+30sw68205 0.0 10012085
14:00+34sw101291 0.0 9982760
17:00+34wsw101380 0.0 9962629
20:00+31sw711100 0.0 9972000